| time (UTC) | temp F | wind direction | speed knots | gust knots | rain 1hr in | rain 24hr in | rain mn in | humidity % | barometer mb |
| 20260506170006 | 40 | 57 | 0.9 | 4.3 | 0.00 | 0.39 | 0.39 | 93 | 1021.4 |
| 20260506164514 | 40 | 20 | 1.7 | 6.1 | 0.00 | 0.39 | 0.39 | 93 | 1021.3 |
| 20260506163012 | 39 | 72 | 0.9 | 5.2 | 0.01 | 0.39 | 0.39 | 93 | 1021.3 |
| 20260506161504 | 39 | 92 | 1.7 | 5.2 | 0.01 | 0.39 | 0.39 | 93 | 1021.3 |
| 20260506160006 | 39 | 26 | 2.6 | 4.3 | 0.03 | 0.39 | 0.39 | 93 | 1021.1 |
| 20260506154514 | 39 | 102 | 1.7 | 4.3 | 0.04 | 0.39 | 0.39 | 93 | 1021.0 |
| 20260506153010 | 40 | 347 | 1.7 | 4.3 | 0.04 | 0.38 | 0.38 | 93 | 1020.8 |
| 20260506151518 | 40 | 97 | 0.9 | 4.3 | 0.04 | 0.38 | 0.38 | 93 | 1020.6 |
| 20260506150004 | 40 | 103 | 0.9 | 3.5 | 0.02 | 0.36 | 0.36 | 93 | 1020.7 |
| 20260506144507 | 40 | 118 | 1.7 | 4.3 | 0.01 | 0.35 | 0.35 | 93 | 1020.6 |
| 20260506143009 | 39 | 139 | 1.7 | 5.2 | 0.01 | 0.34 | 0.34 | 93 | 1020.5 |
| 20260506141512 | 40 | 132 | 2.6 | 7.0 | 0.01 | 0.34 | 0.34 | 93 | 1020.4 |
| 20260506140030 | 40 | 111 | 3.5 | 6.1 | 0.01 | 0.34 | 0.34 | 93 | 1020.5 |
| 20260506134505 | 39 | 121 | 1.7 | 3.5 | 0.01 | 0.34 | 0.34 | 93 | 1020.5 |
| 20260506133007 | 39 | 107 | 1.7 | 3.5 | 0.00 | 0.33 | 0.33 | 93 | 1020.1 |
| 20260506131534 | 39 | 113 | 1.7 | 5.2 | 0.00 | 0.33 | 0.33 | 93 | 1020.2 |
| 20260506130032 | 39 | 98 | 0.9 | 4.3 | 0.00 | 0.33 | 0.33 | 93 | 1019.7 |
| 20260506124527 | 39 | 48 | 0.0 | 0.0 | 0.00 | 0.33 | 0.33 | 93 | 1019.8 |
| 20260506123006 | 39 | 46 | 0.0 | 1.7 | 0.00 | 0.33 | 0.33 | 93 | 1019.4 |
| 20260506121509 | 39 | 59 | 0.0 | 0.0 | 0.00 | 0.33 | 0.33 | 93 | 1019.1 |
| 20260506120028 | 38 | 70 | 0.0 | 0.0 | 0.00 | 0.33 | 0.33 | 93 | 1018.9 |
| 20260506114522 | 38 | 82 | 0.9 | 2.6 | 0.00 | 0.33 | 0.33 | 92 | 1018.1 |
| 20260506113024 | 38 | 18 | 0.0 | 2.6 | 0.00 | 0.33 | 0.33 | 92 | 1017.9 |
| 20260506111506 | 38 | 28 | 0.9 | 2.6 | 0.01 | 0.33 | 0.33 | 92 | 1017.7 |
| 20260506110012 | 38 | 71 | 0.0 | 1.7 | 0.02 | 0.33 | 0.33 | 92 | 1017.9 |
| 20260506104519 | 38 | 93 | 0.0 | 1.7 | 0.06 | 0.33 | 0.33 | 92 | 1018.0 |
| 20260506103034 | 38 | 124 | 0.0 | 2.6 | 0.07 | 0.33 | 0.33 | 92 | 1017.8 |
| 20260506101525 | 38 | 68 | 0.9 | 7.0 | 0.07 | 0.32 | 0.32 | 92 | 1017.7 |
| 20260506100012 | 38 | 83 | 1.7 | 5.2 | 0.06 | 0.31 | 0.31 | 92 | 1017.6 |
| 20260506094518 | 38 | 124 | 2.6 | 6.1 | 0.03 | 0.27 | 0.27 | 92 | 1017.6 |
| 20260506093030 | 39 | 109 | 1.7 | 6.1 | 0.02 | 0.26 | 0.26 | 92 | 1017.7 |
| 20260506091527 | 38 | 107 | 4.3 | 7.0 | 0.01 | 0.25 | 0.25 | 91 | 1017.3 |
| 20260506090026 | 38 | 130 | 2.6 | 5.2 | 0.01 | 0.25 | 0.25 | 91 | 1017.2 |
| 20260506084503 | 38 | 129 | 1.7 | 5.2 | 0.00 | 0.24 | 0.24 | 91 | 1017.6 |
| 20260506083005 | 38 | 130 | 3.5 | 7.0 | 0.01 | 0.24 | 0.24 | 91 | 1017.2 |
| 20260506081504 | 38 | 133 | 0.9 | 5.2 | 0.04 | 0.24 | 0.24 | 91 | 1017.4 |
| 20260506073003 | 39 | 117 | 2.6 | 6.1 | 0.10 | 0.23 | 0.23 | 90 | 1017.7 |
| 20260506071507 | 39 | 144 | 4.3 | 7.0 | 0.09 | 0.20 | 0.20 | 90 | 1017.6 |
| 20260506061503 | 40 | 130 | 0.9 | 5.2 | 0.09 | 0.11 | 0.11 | 89 | 1017.8 |
| 20260506044504 | 41 | 53 | 0.9 | 4.3 | 0.00 | 0.00 | 0.00 | 85 | 1016.7 |
| 20260506043010 | 41 | 45 | 0.9 | 3.5 | 0.00 | 0.00 | 0.00 | 84 | 1017.1 |
| 20260506041516 | 41 | 109 | 0.9 | 6.1 | 0.00 | 0.00 | 0.00 | 83 | 1016.7 |
| 20260506040019 | 41 | 112 | 2.6 | 7.0 | 0.00 | 0.00 | 0.00 | 81 | 1016.3 |
| 20260506034503 | 42 | 131 | 3.5 | 7.8 | 0.00 | 0.00 | 0.00 | 78 | 1016.2 |
| 20260506033008 | 42 | 156 | 1.7 | 8.7 | 0.00 | 0.00 | 0.00 | 75 | 1016.3 |
| 20260506031514 | 42 | 98 | 3.5 | 10.4 | 0.00 | 0.00 | 0.00 | 74 | 1015.5 |
| 20260506030027 | 42 | 117 | 4.3 | 11.3 | 0.00 | 0.00 | 0.00 | 74 | 1015.4 |
| 20260506024536 | 43 | 82 | 1.7 | 8.7 | 0.00 | 0.00 | 0.00 | 74 | 1015.0 |
| 20260506023003 | 43 | 123 | 3.5 | 8.7 | 0.00 | 0.00 | 0.00 | 74 | 1014.7 |
| 20260506021509 | 43 | 111 | 2.6 | 9.6 | 0.00 | 0.00 | 0.00 | 72 | 1014.5 |
| 20260506020013 | 43 | 106 | 0.9 | 8.7 | 0.00 | 0.00 | 0.00 | 72 | 1014.5 |
| 20260506014521 | 43 | 123 | 1.7 | 6.1 | 0.00 | 0.00 | 0.00 | 72 | 1014.5 |
| 20260506013022 | 44 | 98 | 1.7 | 10.4 | 0.00 | 0.00 | 0.00 | 71 | 1014.5 |
| 20260506011508 | 44 | 113 | 0.9 | 8.7 | 0.00 | 0.00 | 0.00 | 71 | 1014.3 |
| 20260506010012 | 45 | 88 | 1.7 | 7.8 | 0.00 | 0.00 | 0.00 | 71 | 1014.3 |
| 20260506004518 | 45 | 49 | 2.6 | 9.6 | 0.00 | 0.00 | 0.00 | 70 | 1014.3 |
| 20260506003022 | 45 | 32 | 1.7 | 7.0 | 0.00 | 0.00 | 0.00 | 69 | 1014.3 |
| 20260506001532 | 46 | 12 | 2.6 | 6.1 | 0.00 | 0.00 | 0.00 | 69 | 1014.0 |
| 20260506000007 | 46 | 101 | 1.7 | 7.8 | 0.00 | 0.00 | 0.00 | 68 | 1014.2 |
| 20260505234503 | 47 | 360 | 2.6 | 9.6 | 0.00 | 0.00 | 0.00 | 66 | 1014.3 |
| 20260505233003 | 47 | 55 | 1.7 | 7.0 | 0.00 | 0.00 | 0.00 | 65 | 1014.2 |
| 20260505231505 | 48 | 26 | 2.6 | 7.8 | 0.00 | 0.00 | 0.00 | 64 | 1014.3 |
| 20260505230021 | 48 | 54 | 2.6 | 7.0 | 0.00 | 0.00 | 0.00 | 61 | 1014.3 |
| 20260505224528 | 49 | 74 | 1.7 | 7.0 | 0.00 | 0.00 | 0.00 | 60 | 1014.2 |
| 20260505223003 | 49 | 10 | 2.6 | 7.8 | 0.00 | 0.00 | 0.00 | 59 | 1013.9 |
| 20260505221504 | 50 | 131 | 2.6 | 7.0 | 0.00 | 0.00 | 0.00 | 57 | 1014.0 |
| 20260505220007 | 50 | 155 | 1.7 | 8.7 | 0.00 | 0.00 | 0.00 | 57 | 1013.7 |
| 20260505214511 | 51 | 198 | 1.7 | 7.0 | 0.00 | 0.00 | 0.00 | 56 | 1013.6 |
| 20260505213016 | 51 | 117 | 2.6 | 7.8 | 0.00 | 0.00 | 0.00 | 56 | 1013.6 |
| 20260505211504 | 51 | 318 | 2.6 | 7.8 | 0.00 | 0.00 | 0.00 | 55 | 1013.9 |
| 20260505210026 | 52 | 76 | 1.7 | 7.8 | 0.00 | 0.00 | 0.00 | 54 | 1014.0 |
| 20260505204511 | 52 | 45 | 2.6 | 10.4 | 0.00 | 0.00 | 0.00 | 53 | 1013.8 |
| 20260505203019 | 52 | 128 | 1.7 | 8.7 | 0.00 | 0.00 | 0.00 | 53 | 1013.9 |
| 20260505201518 | 53 | 9 | 4.3 | 10.4 | 0.00 | 0.00 | 0.00 | 52 | 1013.9 |
| 20260505200006 | 53 | 9 | 1.7 | 9.6 | 0.00 | 0.00 | 0.00 | 1014.1 | |
| 20260505194508 | 54 | 126 | 2.6 | 7.8 | 0.00 | 0.00 | 0.00 | 51 | 1014.2 |
| 20260505193011 | 53 | 112 | 1.7 | 9.6 | 0.00 | 0.00 | 0.00 | 1014.2 | |
| 20260505191523 | 54 | 78 | 2.6 | 8.7 | 0.00 | 0.00 | 0.00 | 51 | 1014.4 |
| 20260505190022 | 54 | 37 | 1.7 | 6.1 | 0.00 | 0.00 | 0.00 | 50 | 1014.3 |
| 20260505184508 | 54 | 108 | 2.6 | 7.8 | 0.00 | 0.00 | 0.00 | 50 | 1014.4 |
| 20260505183011 | 54 | 64 | 1.7 | 12.2 | 0.00 | 0.00 | 0.00 | 50 | 1014.5 |
| 20260505181517 | 54 | 349 | 2.6 | 11.3 | 0.00 | 0.00 | 0.00 | 49 | 1014.6 |
| 20260505180039 | 55 | 352 | 2.6 | 11.3 | 0.00 | 0.00 | 0.00 | 48 | 1014.5 |
| 20260505174522 | 56 | 27 | 2.6 | 10.4 | 0.00 | 0.00 | 0.00 | 47 | 1014.4 |
| 20260505173010 | 55 | 352 | 3.5 | 10.4 | 0.00 | 0.00 | 0.00 | 48 | 1014.6 |
| 20260505171516 | 54 | 52 | 4.3 | 10.4 | 0.00 | 0.00 | 0.00 | 49 | 1014.5 |